• Currently

    Reported at Mombasa
    8:00 PM GMT3 SAT MAY 27 2017
  • 77°F25°C
  • Partly Cloudy
    Partly Cloudy
  • Feels Like:78°F26°CDew Point:73°F23°CHumidity:89% Winds:S 6 mph 10 kph
    Pressure:29.94 in1014 hPaVisibility:6.21 miles10000.00 meters
Time Weather Temp Dew Point
Humidity Winds Visibility Pressure Precipitation
1 hr 24 hr
Saturday, May 27
19:00 19:00 Mostly Clear Mostly Clear 77°F25°C 73°F23°C 89% S 6 mphS 9 kph 30.0 miles48.3 km 29.94 in1014 hPa -- --
18:00 18:00 Mostly Cloudy Mostly Cloudy 79°F26°C 73°F23°C 84% S 6 mphS 9 kph 30.0 miles48.3 km 29.91 in1013 hPa -- --
17:00 17:00 Mostly Cloudy Mostly Cloudy 79°F26°C 73°F23°C 84% S 6 mphS 9 kph 30.0 miles48.3 km 29.91 in1013 hPa -- --
16:00 16:00 Mostly Cloudy With Light Rain Mostly Cloudy With Light Rain 81°F27°C 73°F23°C 79% S 9 mphS 15 kph 30.0 miles48.3 km 29.88 in1012 hPa -- --
15:00 15:00 Mostly Cloudy Mostly Cloudy 81°F27°C 73°F23°C 79% S 10 mphS 17 kph 30.0 miles48.3 km 29.88 in1012 hPa -- --
14:00 14:00 Mostly Cloudy Mostly Cloudy 82°F28°C 73°F23°C 74% S 14 mphS 22 kph 30.0 miles48.3 km 29.91 in1013 hPa -- --
13:00 13:00 Mostly Cloudy Mostly Cloudy 82°F28°C 73°F23°C 74% S 10 mphS 17 kph 30.0 miles48.3 km 29.94 in1014 hPa -- --
12:00 12:00 Mostly Cloudy Mostly Cloudy 84°F29°C 73°F23°C 70% S 14 mphS 22 kph 30.0 miles48.3 km 29.94 in1014 hPa -- --
11:00 11:00 Mostly Cloudy Mostly Cloudy 82°F28°C 73°F23°C 74% S 12 mphS 19 kph 30.0 miles48.3 km 29.97 in1015 hPa -- --
10:00 10:00 Mostly Cloudy Mostly Cloudy 81°F27°C 73°F23°C 79% SSW 9 mphSSW 15 kph 30.0 miles48.3 km 29.97 in1015 hPa -- --
09:00 09:00 Mostly Cloudy With Showers Nearby Mostly Cloudy With Showers Nearby 81°F27°C 73°F23°C 79% S 9 mphS 15 kph 5.0 miles8.0 km 29.97 in1015 hPa -- --
08:00 08:00 Mostly Cloudy Mostly Cloudy 81°F27°C 75°F24°C 84% S 6 mphS 9 kph 30.0 miles48.3 km 29.97 in1015 hPa -- --
07:00 07:00 Mostly Cloudy Mostly Cloudy 79°F26°C 75°F24°C 89% SSW 7 mphSSW 11 kph 30.0 miles48.3 km 29.97 in1015 hPa -- --
06:00 06:00 Mostly Cloudy Mostly Cloudy 77°F25°C 73°F23°C 89% SSW 10 mphSSW 17 kph 30.0 miles48.3 km 29.91 in1013 hPa -- --
05:00 05:00 Mostly Cloudy Mostly Cloudy 77°F25°C 73°F23°C 89% SSW 9 mphSSW 15 kph 30.0 miles48.3 km 29.91 in1013 hPa -- --
04:00 04:00 Mostly Clear Mostly Clear 75°F24°C 73°F23°C 94% SW 7 mphSW 11 kph 30.0 miles48.3 km 29.91 in1013 hPa -- --
03:00 03:00 Partly Cloudy Partly Cloudy 75°F24°C 73°F23°C 94% SW 7 mphSW 11 kph 30.0 miles48.3 km 29.88 in1012 hPa -- --
02:00 02:00 Partly Cloudy Partly Cloudy 77°F25°C 73°F23°C 89% SSW 6 mphSSW 9 kph 30.0 miles48.3 km 29.88 in1012 hPa -- --
00:00 00:00 Mostly Clear Mostly Clear 77°F25°C 75°F24°C 94% S 6 mphS 9 kph 30.0 miles48.3 km 29.91 in1013 hPa -- --
23:00 23:00 Mostly Clear Mostly Clear 79°F26°C 75°F24°C 89% S 7 mphS 11 kph 30.0 miles48.3 km 29.91 in1013 hPa -- --